Flag for U.S.A. Weather past 2 weeks in Gainesville, Florida, U.S.A.

Now
81 °F

Passing clouds.


Feels Like: 85 °F
Forecast: 69 / 84 °F
Wind: No wind

Location: Gainesville Regional Airport

Current Time: Sep 17, 2014 at 1:55:54 PM

Latest Report: Sep 17, 2014 at 12:53 PM


Visibility: 10 mi

Pressure: 29.93 "Hg

Humidity: 74%

Dew point: 72 °F

Location of GainesvilleLocation

Historic Weather in Gainesville — Graph

°F

Gainesville temperature yesterday

Maximum temperature yesterday: 78 °F (at 10:53 AM)
Minimum temperature yesterday: 72 °F (at 9:53 PM)
Average temperature yesterday: 75 °F

Past Weeks' High & Low Weather Summary

 TemperatureHumidityPressure
High92 °F (Sep 12, 3:53 PM)100% (Sep 4, 5:53 AM)30.16 "Hg (Sep 4, 5:53 AM)
Low70 °F (Sep 11, 6:53 AM)47% (Sep 3, 4:53 PM)29.90 "Hg (Sep 17, 4:53 AM)
Average78 °F85%30.04 "Hg
* Reported Sep 2 12:53 PM — Sep 17 12:53 PM, Gainesville, Weather by CustomWeather, © 2014

Note: Actual official high and low records may vary slightly from our data, if they occured in-between our weather recording intervals... More about our weather records

Advertising

Gainesville weather history for previous 24 hours

 ConditionsComfort  
Time TempWeatherWind HumidityBarometerVisibility
12:53 PM
Sep 17
81 °FPassing clouds.No wind74%29.93 "Hg10 mi
11:53 AM82 °FPassing clouds.No wind74%29.94 "Hg10 mi
10:53 AM80 °FPassing clouds.6 mph79%29.95 "Hg10 mi
9:53 AM79 °FSunny.3 mph82%29.95 "Hg10 mi
8:53 AM75 °FSunny.No wind94%29.94 "Hg10 mi
7:53 AM71 °FOvercast.No wind100%29.93 "Hg10 mi
6:53 AM71 °FPassing clouds.No wind96%29.92 "Hg10 mi
5:53 AM71 °FPassing clouds.No wind96%29.91 "Hg10 mi
4:53 AM71 °FPassing clouds.3 mph96%29.90 "Hg10 mi
3:53 AM71 °FPassing clouds.No wind100%29.92 "Hg10 mi
2:53 AM71 °FOvercast.3 mph100%29.94 "Hg10 mi
2:03 AM71 °FPassing clouds.5 mph100%29.96 "Hg10 mi
1:53 AM72 °FPassing clouds.5 mph97%29.96 "Hg10 mi
12:53 AM72 °FPassing clouds.8 mph97%29.96 "Hg10 mi
11:53 PM
Sep 16
72 °FLight rain. Clear.No wind97%29.97 "Hg7 mi
11:03 PM72 °FPassing clouds.3 mph97%29.98 "Hg10 mi
10:53 PM72 °FPassing clouds.5 mph97%29.97 "Hg10 mi
9:53 PM72 °FLight rain. Fog.8 mph97%29.97 "Hg6 mi
8:53 PM73 °FRain. Fog.6 mph97%29.98 "Hg6 mi
7:53 PM75 °FLight rain. Mostly cloudy.13 mph90%29.99 "Hg10 mi
6:53 PM76 °FPassing clouds.6 mph91%29.97 "Hg10 mi
5:53 PM77 °FScattered clouds.6 mph88%29.97 "Hg10 mi
4:53 PM78 °FBroken clouds.9 mph87%29.97 "Hg10 mi
3:53 PM76 °FLight rain. Mostly cloudy.No wind88%29.98 "Hg10 mi
2:53 PM74 °FRain. Fog.8 mph94%30.02 "Hg4 mi
2:01 PM76 °FLight rain. Partly sunny.9 mph94%30.04 "Hg10 mi
Weather by CustomWeather, © 2014

See weather overviewHow to use our weather pages